Regional Weather Roundup
Issued by NWS Kansas City/Pleasant Hill, MO

Home | Current Version | Previous Version | Graphics & Text | Print | Product List | Glossary Off
Versions: 1 2 3 4 5 6 7 8 9 10 11 12 13 14 15 16 17 18 19 20 21 22 23 24 25 26 27 28 29 30 31 32 33 34 35 36 37 38 39 40 41 42 43 44 45 46 47 48 49 50

000
ASUS43 KEAX 041510
RWREAX

WEATHER ROUNDUP FOR EASTERN KANSAS AND NORTHWEST MISSOURI
NATIONAL WEATHER SERVICE KANSAS CITY/PLEASANT HILL MO
1000 AM CDT WED MAY 04 2016

KSZ040-057-103>105-MOZ028-029-037-043-041600-
...KANSAS CITY METROPOLITAN AREA...

CITY           SKY/WX    TMP DP  RH WIND       PRES   REMARKS
K.C. INTL      SUNNY     60  41  49 N15       29.97R
K.C. DOWNTOWN  SUNNY     63  40  42 NW8       29.96R
LEES SUMMIT    SUNNY     61  40  45 N17       29.95R
OLATHE - IXD   SUNNY     62  40  44 NW16      29.97R
OLATHE - OJC   SUNNY     61  38  42 N15       29.96R
LAWRENCE       SUNNY     63  41  44 NW17      29.98R

$$

MOZ001>008-011>017-020>025-030>033-038>040-044>046-053-054-041600-
...NORTHERN AND CENTRAL MISSOURI...

CITY           SKY/WX    TMP DP  RH WIND       PRES   REMARKS
ST. JOSEPH     SUNNY     61  41  47 N15       29.99R
MOSBY          SUNNY     59  41  51 NW14      29.96R
WARRENSBURG    SUNNY     61  43  51 NW12G17   29.92R
WHITEMAN AFB   SUNNY     62  45  54 N15       29.90R
CLINTON        SUNNY     63  45  51 NW15      29.92R
SEDALIA        SUNNY     63  47  55 N17       29.91R
WARSAW         NOT AVBL
CHILLICOTHE      N/A     62  45  53 N9G18     29.94R
KIRKSVILLE     SUNNY     60  45  57 N14G21    29.90R

$$

MOZ041-047>049-056>058-063>065-088>090-097-041600-
...EASTERN AND SOUTHERN MISSOURI...

CITY           SKY/WX    TMP DP  RH WIND       PRES   REMARKS
ST. LOUIS INTL MOSUNNY   64  46  52 N20G25    29.77R
SPIRIT OF STL  MOSUNNY   64  48  56 N13G22    29.77R
COLUMBIA       SUNNY     63  48  58 N16G22    29.85R
JEFFERSON CITY SUNNY     64  45  49 N12       29.84R
ROLLA          SUNNY     62  47  57 NW16      29.81R
OSAGE BEACH    SUNNY     63  41  45 N10G18    29.86R
SPRINGFIELD    SUNNY     63  44  50 NW15G26   29.89R
BRANSON        SUNNY     64  46  52 W12G23    29.89F
JOPLIN         SUNNY     65  48  54 NW9       29.94S
WEST PLAINS    MOSUNNY   64  46  52 W16G24    29.83F

$$

IAZ060-094-KSZ022-034>040-054-083-096-NEZ052-066-093-041600-
...KANSAS...SOUTHEAST NEBRASKA AND IOWA...

CITY           SKY/WX    TMP DP  RH WIND       PRES   REMARKS
TOPEKA         SUNNY     62  39  42 N15G22    30.00R
MANHATTAN      SUNNY     64  39  39 N8        30.04R
EMPORIA        SUNNY     64  40  41 N14G21    30.01R
CHANUTE        SUNNY     65  43  44 NW18      29.98R
WICHITA        SUNNY     65  44  46 N13       30.05R
OMAHA          SUNNY     57  40  52 N12       30.05R
LINCOLN        SUNNY     60  37  42 N14       30.08R
FALLS CITY     SUNNY     60  40  47 N14G22    30.01R
LAMONI         SUNNY     57  41  55 N14G21    29.96R
DES MOINES     MOSUNNY   58  38  47 N17       29.97R

$$




USA.gov is the U.S. government's official web portal to all federal, state and local government web resources and services.